Lorain / Elyria, OH

6:27 AM EDT on March 29, 2017 (GMT -0400)
Lorain County Regional

Weather History for KLPR - June, 2013

Change the Weather History Date:

Thursday, June 27, 2013

  Actual Average (KCLE) Record (KCLE)
Temperature  
Mean Temperature 75 °F -  
Max Temperature 81 °F 80 °F 98 °F (1944)
Min Temperature 69 °F 59 °F 44 °F (1981)
Cooling Degree Days 10    
Growing Degree Days 25 (Base 50)    
Moisture  
Dew Point 68 °F    
Average Humidity 84    
Maximum Humidity 94    
Minimum Humidity 60    
Precipitation  
Precipitation 0.36 in - - ()
Sea Level Pressure  
Sea Level Pressure 29.74 in    
Wind  
Wind Speed 4 mph (SE)    
Max Wind Speed 9 mph    
Max Gust Speed -    
Visibility 8 miles    
Events Rain    
Averages and records for this station are not official NWS values.
T = Trace of Precipitation, MM = Missing Value Source: NWS Daily Summary

Daily Weather History Graph

Daily Weather History Graph

Search for Another Location

Airport or City:

Trip Planner

Search our weather history database for the weather conditions in past years. The results will help you decide how hot, cold, wet, or windy it might be!

Date:

Astronomy

Jun. 27, 2013 Rise Set
Actual Time 5:57 AM EDT 9:06 PM EDT
Civil Twilight 5:23 AM EDT 9:39 PM EDT
Nautical Twilight 4:40 AM EDT 10:23 PM EDT
Astronomical Twilight 3:48 AM EDT 11:14 PM EDT
Moon 11:58 PM EDT (6/27) 11:00 AM EDT (6/27)
Length of Visible Light 16h 16m
Length of Day
15h 08m
Waning Gibbous, 76% of the Moon is Illuminated
Jun 27
Waning Gibbous
Jun 30
Last Quarter
Jul 8
New
Jul 15
First Quarter
Jul 22
Full

Hourly Weather History & Observations

Time (EDT) Temp. Heat Index Dew Point Humidity Pressure Visibility Wind Dir Wind Speed Gust Speed Precip Events Conditions
12:53 AM 72.0 °F - 69.1 °F 91% 29.78 in 9.0 mi SSW 4.6 mph - 0.00 in Rain Light Rain
1:53 AM 71.1 °F - 68.0 °F 90% 29.77 in 6.0 mi SSW 8.1 mph - 0.03 in Rain Rain
2:46 AM 69.8 °F - 68.0 °F 94% 29.78 in 4.0 mi SW 9.2 mph - 0.08 in Rain Rain
2:53 AM 70.0 °F - 68.0 °F 93% 29.77 in 4.0 mi SSW 8.1 mph - 0.10 in Rain Rain
3:53 AM 70.0 °F - 68.0 °F 93% 29.76 in 6.0 mi South 4.6 mph - 0.09 in Rain Light Rain
4:17 AM 69.8 °F - 68.0 °F 94% 29.77 in 5.0 mi South 4.6 mph - 0.02 in Rain Light Rain
4:31 AM 69.8 °F - 66.2 °F 88% 29.77 in 6.0 mi SSW 4.6 mph - 0.03 in Rain Light Rain
4:53 AM 70.0 °F - 66.9 °F 90% 29.75 in 6.0 mi South 4.6 mph - 0.04 in Rain Light Rain
5:53 AM 69.1 °F - 66.9 °F 93% 29.75 in 7.0 mi Calm Calm - 0.06 in Rain Light Rain
6:53 AM 69.1 °F - 66.9 °F 93% 29.74 in 5.0 mi Calm Calm - 0.00 in   Clear
7:53 AM 70.0 °F - 68.0 °F 93% 29.73 in 8.0 mi Calm Calm - 0.00 in Rain Light Rain
8:20 AM 71.6 °F - 68.0 °F 88% 29.76 in 9.0 mi West 3.5 mph - N/A   Overcast
8:44 AM 71.6 °F - 68.0 °F 88% 29.75 in 9.0 mi WSW 3.5 mph - N/A   Overcast
8:53 AM 71.1 °F - 68.0 °F 90% 29.74 in 9.0 mi Calm Calm - N/A   Overcast
9:51 AM 71.6 °F - 68.0 °F 88% 29.76 in 10.0 mi Calm Calm - 0.00 in Rain Light Rain
9:53 AM 72.0 °F - 68.0 °F 87% 29.75 in 10.0 mi Calm Calm - 0.00 in Rain Light Rain
10:10 AM 73.4 °F - 68.0 °F 83% 29.76 in 10.0 mi Calm Calm - 0.00 in   Overcast
10:40 AM 73.4 °F - 68.0 °F 83% 29.75 in 10.0 mi Calm Calm - 0.00 in Rain Light Rain
10:49 AM 73.4 °F - 68.0 °F 83% 29.75 in 9.0 mi Calm Calm - 0.01 in Rain Light Rain
10:53 AM 73.0 °F - 68.0 °F 84% 29.74 in 10.0 mi Calm Calm - 0.01 in Rain Light Rain
11:18 AM 73.4 °F - 68.0 °F 83% 29.75 in 10.0 mi North 3.5 mph - 0.00 in Rain Light Rain
11:25 AM 73.4 °F - 68.0 °F 83% 29.76 in 6.0 mi North 4.6 mph - 0.00 in Rain Light Rain
11:53 AM 73.9 °F - 68.0 °F 82% 29.73 in 10.0 mi Calm Calm - 0.00 in   Overcast
12:45 PM 73.4 °F - 68.0 °F 83% 29.75 in 10.0 mi East 4.6 mph - N/A   Overcast
12:53 PM 73.9 °F - 68.0 °F 82% 29.74 in 10.0 mi East 4.6 mph - N/A   Overcast
1:53 PM 75.0 °F - 68.0 °F 79% 29.74 in 10.0 mi ENE 9.2 mph - N/A   Overcast
2:29 PM 77.0 °F - 68.0 °F 74% 29.74 in 10.0 mi ENE 6.9 mph - N/A   Mostly Cloudy
2:53 PM 77.0 °F - 66.9 °F 71% 29.73 in 10.0 mi ENE 5.8 mph - N/A   Overcast
3:53 PM 78.1 °F - 66.9 °F 68% 29.71 in 10.0 mi NNE 3.5 mph - N/A   Clear
4:53 PM 80.1 °F 82.7 °F 68.0 °F 67% 29.69 in 10.0 mi NNE 6.9 mph - N/A   Clear
5:53 PM 81.0 °F 83.0 °F 66.0 °F 60% 29.68 in 10.0 mi Calm Calm - N/A   Clear
6:53 PM 77.0 °F - 66.9 °F 71% 29.69 in 10.0 mi NNE 8.1 mph - N/A   Clear
7:53 PM 73.9 °F - 66.0 °F 76% 29.70 in 10.0 mi North 8.1 mph - N/A   Mostly Cloudy
8:53 PM 72.0 °F - 68.0 °F 87% 29.70 in 10.0 mi North 3.5 mph - 0.03 in Rain Light Rain
9:53 PM 71.1 °F - 69.1 °F 93% 29.67 in 10.0 mi SSE 3.5 mph - 0.00 in Rain Light Rain
10:53 PM 71.1 °F - 68.0 °F 90% 29.67 in 7.0 mi SW 5.8 mph - N/A   Clear
11:53 PM 69.1 °F - 66.0 °F 90% 29.65 in 6.0 mi Calm Calm - N/A   Clear